Flag for U.S.A. Weather past 2 weeks in San Jose, California, U.S.A.

Now
59 °F

Passing clouds.


Feels Like: 59 °F
Forecast: 55 / 62 °F
Wind: No wind

Location: San Jose International Airport

Current Time: Dec 20, 2014 at 8:57:44 PM

Latest Report: Dec 20, 2014 at 7:53 PM


Visibility: 10 mi

Pressure: 30.24 "Hg

Humidity: 81%

Dew point: 53 °F

Location of San JoseLocation

Historic Weather in San Jose — Graph

°F

San Jose temperature yesterday

Maximum temperature yesterday: 57 °F (at 10:53 AM)
Minimum temperature yesterday: 53 °F (at 12:53 AM)
Average temperature yesterday: 55 °F

Past Weeks' High & Low Weather Summary

 TemperatureHumidityPressure
High71 °F (Dec 8, 2:53 PM)100% (Dec 7, 2:53 AM)30.24 "Hg (Dec 7, 2:53 AM)
Low43 °F (Dec 13, 3:53 AM)51% (Dec 8, 1:53 PM)29.55 "Hg (Dec 11, 6:53 AM)
Average55 °F85%30.04 "Hg
* Reported Dec 5 7:53 PM — Dec 20 7:53 PM, San Jose, Weather by CustomWeather, © 2014

Note: Actual official high and low records may vary slightly from our data, if they occured in-between our weather recording intervals... More about our weather records

Advertising

San Jose weather history for previous 24 hours

 ConditionsComfort  
Time TempWeatherWind HumidityBarometerVisibility
7:53 PM
Dec 20
59 °FPassing clouds.No wind81%30.24 "Hg10 mi
6:53 PM60 °FPassing clouds.3 mph67%30.23 "Hg10 mi
5:53 PM60 °FOvercast.No wind69%30.22 "Hg10 mi
4:53 PM61 °FOvercast.No wind67%30.21 "Hg10 mi
3:53 PM61 °FOvercast.No wind70%30.20 "Hg10 mi
2:53 PM61 °FMore clouds than sun.No wind72%30.19 "Hg10 mi
1:53 PM61 °FOvercast.No wind72%30.19 "Hg10 mi
12:53 PM60 °FMore clouds than sun.No wind78%30.19 "Hg10 mi
11:53 AM59 °FMostly cloudy.No wind84%30.20 "Hg10 mi
10:53 AM58 °FMore clouds than sun.No wind90%30.21 "Hg10 mi
9:53 AM57 °FMore clouds than sun.No wind93%30.22 "Hg10 mi
8:53 AM55 °FMostly cloudy.3 mph100%30.21 "Hg10 mi
7:53 AM54 °FMore clouds than sun.3 mph100%30.15 "Hg10 mi
6:53 AM54 °FMostly cloudy.No wind100%30.15 "Hg10 mi
5:53 AM62 °FMostly cloudy.No wind79%30.15 "Hg7 mi
5:02 AM55 °FLight rain. Fog.No wind100%30.14 "Hg2 mi
3:53 AM55 °FLight rain. Fog.3 mph96%30.13 "Hg5 mi
2:53 AM55 °FMostly cloudy.No wind93%30.13 "Hg10 mi
1:53 AM55 °FOvercast.6 mph93%30.13 "Hg10 mi
12:53 AM55 °FOvercast.7 mph93%30.14 "Hg10 mi
11:53 PM
Dec 19
55 °FPassing clouds.No wind96%30.15 "Hg10 mi
10:53 PM55 °FLight rain. Partly cloudy.6 mph93%30.15 "Hg8 mi
9:53 PM55 °FPartly cloudy.3 mph93%30.15 "Hg10 mi
8:53 PM55 °FPartly cloudy.5 mph93%30.12 "Hg10 mi
Weather by CustomWeather, © 2014

See weather overviewHow to use our weather pages